• In Hungary
  • List of Countries
  • For 7 days
  • Water Temperature
  • Satellite Maps
  • Weather Map
  • News
  • Weather Widgets
  • user-avatar
    Login

    Hourly Weather Prägraten

    Today, 17 October, Wednesday

    Time Temperature Precipitation Wind Pressure Humidity
    00:00 +1°C° 0 mm 1 mps 579 mmHg 88%
    01:00 +1°C° 0 mm 1 mps 579 mmHg 88%
    02:00 +1°C° 0 mm 1 mps 579 mmHg 88%
    03:00 0°C° 0 mm 1 mps 579 mmHg 88%
    04:00 0°C° 0 mm 1 mps 579 mmHg 88%
    05:00 0°C° 0 mm 1 mps 579 mmHg 87%
    06:00 0°C° 0 mm 1 mps 579 mmHg 86%
    07:00 0°C° 0 mm 1 mps 579 mmHg 85%
    08:00 +3°C° 0 mm 1 mps 580 mmHg 74%
    09:00 +6°C° 0 mm 1 mps 581 mmHg 64%
    10:00 +9°C° 0 mm 1 mps 583 mmHg 54%
    11:00 +9°C° 0 mm 1 mps 583 mmHg 53%
    12:00 +10°C° 0 mm 1 mps 583 mmHg 51%
    13:00 +10°C° 0 mm 1 mps 583 mmHg 50%
    14:00 +10°C° 0 mm 1 mps 582 mmHg 55%
    15:00 +9°C° 0 mm 1 mps 582 mmHg 60%
    16:00 +8°C° 0 mm 1 mps 581 mmHg 66%
    17:00 +6°C° 0 mm 1 mps 580 mmHg 75%
    18:00 +4°C° 0 mm 1 mps 579 mmHg 84%
    19:00 +1°C° 0 mm 0 mps 578 mmHg 93%
    20:00 +2°C° 0 mm 1 mps 578 mmHg 92%
    21:00 +2°C° 0 mm 1 mps 579 mmHg 92%
    22:00 +2°C° 0 mm 1 mps 579 mmHg 92%
    23:00 +2°C° 0 mm 1 mps 579 mmHg 91%

    Tomorrow, 18 October, Thursday

    Time Temperature Precipitation Wind Pressure Humidity
    00:00 +1°C° 0 mm 1 mps 578 mmHg 91%
    01:00 +1°C° 0 mm 1 mps 578 mmHg 91%
    02:00 +1°C° 0 mm 1 mps 578 mmHg 91%
    03:00 +1°C° 0 mm 1 mps 578 mmHg 91%
    04:00 +1°C° 0 mm 1 mps 578 mmHg 91%
    05:00 +1°C° 0 mm 1 mps 578 mmHg 90%
    06:00 +1°C° 0 mm 1 mps 578 mmHg 90%
    07:00 +1°C° 0 mm 1 mps 578 mmHg 89%
    08:00 +3°C° 0 mm 1 mps 579 mmHg 80%
    09:00 +6°C° 0 mm 1 mps 581 mmHg 71%
    10:00 +8°C° 0 mm 0 mps 582 mmHg 62%
    11:00 +9°C° 0 mm 1 mps 582 mmHg 59%
    12:00 +10°C° 0 mm 1 mps 582 mmHg 57%
    13:00 +10°C° 0 mm 1 mps 582 mmHg 55%
    14:00 +9°C° 0 mm 1 mps 582 mmHg 61%
    15:00 +9°C° 0 mm 1 mps 581 mmHg 67%
    16:00 +8°C° 0 mm 1 mps 581 mmHg 72%
    17:00 +6°C° 0 mm 1 mps 580 mmHg 80%
    18:00 +5°C° 0 mm 1 mps 580 mmHg 87%
    19:00 +3°C° 0 mm 1 mps 579 mmHg 95%
    20:00 +3°C° 0 mm 1 mps 579 mmHg 95%
    21:00 +2°C° 0 mm 1 mps 579 mmHg 96%
    22:00 +2°C° 0 mm 1 mps 580 mmHg 96%
    23:00 +2°C° 0 mm 1 mps 579 mmHg 96%

    Day after tomorrow, 19 October, Friday

    Time Temperature Precipitation Wind Pressure Humidity
    00:00 +2°C° 0 mm 1 mps 579 mmHg 96%
    01:00 +1°C° 0 mm 1 mps 579 mmHg 96%
    02:00 +1°C° 0 mm 1 mps 579 mmHg 95%
    03:00 +1°C° 0 mm 1 mps 579 mmHg 95%
    04:00 +1°C° 0 mm 1 mps 579 mmHg 95%
    05:00 +1°C° 0 mm 1 mps 579 mmHg 94%
    06:00 0°C° 0 mm 1 mps 579 mmHg 93%
    07:00 0°C° 0 mm 1 mps 579 mmHg 92%
    08:00 +3°C° 0 mm 1 mps 580 mmHg 80%
    09:00 +5°C° 0 mm 1 mps 582 mmHg 68%
    10:00 +8°C° 0 mm 1 mps 583 mmHg 56%
    11:00 +9°C° 0 mm 1 mps 584 mmHg 53%
    12:00 +10°C° 0 mm 1 mps 584 mmHg 49%
    13:00 +10°C° 0 mm 1 mps 584 mmHg 46%
    14:00 +10°C° 0 mm 1 mps 584 mmHg 52%
    15:00 +9°C° 0 mm 1 mps 583 mmHg 58%
    16:00 +8°C° 0 mm 1 mps 583 mmHg 64%
    17:00 +6°C° 0 mm 1 mps 582 mmHg 73%
    18:00 +4°C° 0 mm 1 mps 581 mmHg 82%
    19:00 +2°C° 0 mm 1 mps 581 mmHg 92%
    20:00 +1°C° 0 mm 1 mps 581 mmHg 92%
    21:00 0°C° 0 mm 0 mps 581 mmHg 92%
    22:00 0°C° 0 mm 0 mps 581 mmHg 93%
    23:00 0°C° 0 mm 0 mps 581 mmHg 92%

    20 October, Saturday

    Time Temperature Precipitation Wind Pressure Humidity
    00:00 0°C° 0 mm 0 mps 581 mmHg 92%
    01:00 0°C° 0 mm 0 mps 581 mmHg 92%
    02:00 0°C° 0 mm 1 mps 581 mmHg 91%
    03:00 0°C° 0 mm 1 mps 581 mmHg 91%
    04:00 0°C° 0 mm 1 mps 581 mmHg 90%
    05:00 0°C° 0 mm 1 mps 581 mmHg 90%
    06:00 0°C° 0 mm 1 mps 581 mmHg 89%
    07:00 0°C° 0 mm 1 mps 581 mmHg 89%
    08:00 +2°C° 0 mm 1 mps 582 mmHg 79%
    09:00 +4°C° 0 mm 1 mps 584 mmHg 70%
    10:00 +7°C° 0 mm 1 mps 585 mmHg 60%
    11:00 +7°C° 0 mm 1 mps 585 mmHg 58%
    12:00 +8°C° 0 mm 1 mps 586 mmHg 57%
    13:00 +8°C° 0 mm 2 mps 586 mmHg 55%
    14:00 +7°C° 0 mm 2 mps 585 mmHg 60%
    15:00 +6°C° 0 mm 2 mps 585 mmHg 66%
    16:00 +5°C° 0 mm 2 mps 585 mmHg 72%
    17:00 +4°C° 0 mm 1 mps 584 mmHg 80%
    18:00 +3°C° 0 mm 1 mps 583 mmHg 88%
    19:00 +1°C° 0 mm 1 mps 583 mmHg 96%
    20:00 +1°C° 0 mm 1 mps 583 mmHg 96%
    21:00 0°C° 0 mm 1 mps 583 mmHg 96%
    22:00 -1°C° 0 mm 0 mps 583 mmHg 96%
    23:00 -1°C° 0 mm 0 mps 583 mmHg 95%

    21 October, Sunday

    Time Temperature Precipitation Wind Pressure Humidity
    00:00 -2°C° 0 mm 0 mps 583 mmHg 95%
    01:00 -2°C° 0 mm 0 mps 583 mmHg 95%
    02:00 -2°C° 0 mm 0 mps 583 mmHg 93%
    03:00 -1°C° 0 mm 1 mps 582 mmHg 92%
    04:00 -1°C° 0 mm 1 mps 582 mmHg 91%
    05:00 -1°C° 0 mm 1 mps 582 mmHg 89%
    06:00 -1°C° 0 mm 1 mps 582 mmHg 87%
    07:00 -2°C° 0 mm 1 mps 582 mmHg 84%
    08:00 +1°C° 0 mm 1 mps 584 mmHg 71%
    09:00 +3°C° 0 mm 0 mps 585 mmHg 57%
    10:00 +6°C° 0 mm 0 mps 587 mmHg 43%
    11:00 +7°C° 0 mm 0 mps 587 mmHg 40%
    12:00 +8°C° 0 mm 0 mps 587 mmHg 36%
    13:00 +9°C° 0 mm 0 mps 587 mmHg 32%
    14:00 +8°C° 0 mm 0 mps 587 mmHg 40%
    15:00 +8°C° 0 mm 1 mps 586 mmHg 48%
    16:00 +7°C° 0 mm 1 mps 585 mmHg 55%
    17:00 +5°C° 0 mm 1 mps 584 mmHg 62%
    18:00 +3°C° 0 mm 1 mps 583 mmHg 69%
    19:00 0°C° 0 mm 1 mps 582 mmHg 76%
    20:00 0°C° 0 mm 1 mps 582 mmHg 73%
    21:00 0°C° 0 mm 1 mps 582 mmHg 71%
    22:00 0°C° 0 mm 1 mps 582 mmHg 68%
    23:00 0°C° 0 mm 1 mps 582 mmHg 65%

    22 October, Monday

    Time Temperature Precipitation Wind Pressure Humidity
    00:00 0°C° 0 mm 1 mps 582 mmHg 63%
    01:00 0°C° 0 mm 1 mps 582 mmHg 60%
    02:00 0°C° 0 mm 1 mps 581 mmHg 57%
    03:00 0°C° 0 mm 1 mps 581 mmHg 54%
    04:00 0°C° 0 mm 1 mps 581 mmHg 52%
    05:00 0°C° 0 mm 1 mps 581 mmHg 51%
    06:00 0°C° 0 mm 1 mps 581 mmHg 49%
    07:00 0°C° 0 mm 1 mps 581 mmHg 48%
    08:00 +3°C° 0 mm 1 mps 582 mmHg 45%
    09:00 +5°C° 0 mm 1 mps 583 mmHg 41%
    10:00 +8°C° 0 mm 1 mps 585 mmHg 38%
    11:00 +9°C° 0 mm 1 mps 585 mmHg 38%
    12:00 +9°C° 0 mm 1 mps 585 mmHg 38%
    13:00 +10°C° 0 mm 1 mps 585 mmHg 38%
    14:00 +9°C° 0 mm 1 mps 584 mmHg 45%
    15:00 +8°C° 0 mm 1 mps 583 mmHg 51%
    16:00 +7°C° 0 mm 1 mps 583 mmHg 58%
    17:00 +5°C° 0 mm 1 mps 582 mmHg 66%
    18:00 +3°C° 0 mm 1 mps 581 mmHg 74%
    19:00 0°C° 0 mm 1 mps 580 mmHg 82%
    20:00 0°C° 0 mm 1 mps 579 mmHg 83%
    21:00 0°C° 0 mm 1 mps 579 mmHg 83%
    22:00 0°C° 0 mm 1 mps 579 mmHg 83%
    23:00 -1°C° 0 mm 1 mps 579 mmHg 84%
    Show more